Tracking 25963 objects as of 12-Aug-2022
HD Live streaming from Space Station
objects crossing your sky now

RADUGA 7

Track RADUGA 7 now!
RADUGA 7 is classified as:


NORAD ID: 12003
Int'l Code: 1980-081A
Perigee: 35,746.0 km
Apogee: 35,828.4 km
Inclination: 9.3 °
Period: 1,435.8 minutes
Semi major axis: 42158 km
RCS: 7.9432 m2 (large)
Launch date: October 5, 1980
Source: Commonwealth of Independent States (former USSR) (CIS)
Launch site: TYURATAM MISSILE AND SPACE COMPLEX (TTMTR)
aabbcc
Your satellite tracking list
Your tracking list is empty




NASA's NSSDC Master Catalog

Two Line Element Set (TLE):
1 12003U 80081A   22223.54910404 -.00000221  00000-0  00000+0 0  9996
2 12003   9.3127 303.5849 0009772 255.5239 289.0842  1.00295092109324
Source of the keplerian elements: AFSPC